La Junta, CO

3:35 PM MDT on April 19, 2018 (GMT -0600)
La Junta Municipal

Weather History for KLHX - June, 2014

Change the Weather History Date:

Thursday, June 5, 2014

  Actual Average Record
Temperature  
Mean Temperature 75 °F 69 °F  
Max Temperature 87 °F 84 °F 101 °F (1946)
Min Temperature 62 °F 54 °F 40 °F (1970)
Degree Days  
Heating Degree Days 0 1  
Month to date heating degree days 0 7  
Since 1 June heating degree days 0 7  
Since 1 July heating degree days 5186 5262  
Cooling Degree Days 10 5  
Month to date cooling degree days 61 24  
Year to date cooling degree days 183 97  
Since 1 June cooling degree days 61 24  
Growing Degree Days 24 (Base 50)    
Moisture  
Dew Point 52 °F    
Average Humidity 53    
Maximum Humidity 78    
Minimum Humidity 28    
Precipitation  
Precipitation T in 0.05 in 0.63 in (2008)
Month to date precipitation T 0.24  
Year to date precipitation 2.67  
Sea Level Pressure  
Sea Level Pressure 29.82 in    
Wind  
Wind Speed 13 mph (ENE)    
Max Wind Speed 32 mph    
Max Gust Speed 37 mph    
Visibility 10 miles    
Events Thunderstorm    
T = Trace of Precipitation, MM = Missing Value Source: NWS Daily Summary

Daily Weather History Graph

Daily Weather History Graph

Search for Another Location

Airport or City:

Astronomy

Jun. 05, 2014 Rise Set
Actual Time 5:31 AM MDT 8:13 PM MDT
Civil Twilight 5:00 AM MDT 8:44 PM MDT
Nautical Twilight 4:21 AM MDT 9:23 PM MDT
Astronomical Twilight 3:38 AM MDT 10:07 PM MDT
Moon 12:44 PM MDT (6/5) 12:47 AM MDT (6/5)
Length of Visible Light 15h 44m
Length of Day
14h 41m
Waxing Crescent, 49% of the Moon is Illuminated
Jun 5
Waxing Crescent
Jun 5
First Quarter
Jun 12
Full
Jun 19
Last Quarter
Jun 27
New

Hourly Weather History & Observations

Time (MDT) Temp. Dew Point Humidity Pressure Visibility Wind Dir Wind Speed Gust Speed Precip Events Conditions
12:34 AM 69.1 °F 61.0 °F 75% 29.89 in 10.0 mi NE 20.7 mph - N/A   Mostly Cloudy
12:53 AM 70.0 °F 60.1 °F 71% 29.69 in 10.0 mi NE 20.7 mph 28.8 mph N/A   Overcast
1:50 AM 62.6 °F 55.4 °F 77% 29.88 in 10.0 mi NE 17.3 mph - N/A   Overcast
1:53 AM 63.0 °F 55.9 °F 78% 29.69 in 10.0 mi NE 15.0 mph 24.2 mph N/A   Mostly Cloudy
2:53 AM 62.1 °F 55.9 °F 80% 29.69 in 10.0 mi NNE 5.8 mph - N/A   Clear
3:53 AM 64.0 °F 51.1 °F 63% 29.75 in 10.0 mi North 13.8 mph - N/A   Overcast
4:53 AM 64.9 °F 50.0 °F 58% 29.79 in 10.0 mi Calm Calm - N/A   Overcast
5:53 AM 64.9 °F 52.0 °F 63% 29.81 in 10.0 mi NNW 11.5 mph - N/A   Clear
6:53 AM 64.9 °F 50.0 °F 58% 29.83 in 10.0 mi NW 11.5 mph - N/A   Clear
7:53 AM 66.9 °F 52.0 °F 59% 29.86 in 10.0 mi North 12.7 mph - N/A   Clear
9:53 AM 73.0 °F 51.1 °F 46% 29.87 in 10.0 mi Variable 4.6 mph - N/A   Clear
10:53 AM 77.0 °F 50.0 °F 39% 29.84 in 10.0 mi Variable 3.5 mph - N/A   Clear
11:48 AM 80.6 °F 48.2 °F 32% 30.01 in - North - - N/A   Partly Cloudy
11:53 AM 80.1 °F 46.9 °F 31% 29.83 in - North - - N/A   Partly Cloudy
12:53 PM 82.0 °F 46.9 °F 29% 29.81 in - East 10.4 mph 16.1 mph N/A   Clear
1:53 PM 82.9 °F 46.9 °F 28% 29.80 in 10.0 mi East 12.7 mph 19.6 mph N/A   Clear
2:53 PM 84.9 °F 48.0 °F 28% 29.78 in 10.0 mi East 12.7 mph 25.3 mph N/A   Unknown
3:53 PM 84.9 °F 52.0 °F 32% 29.74 in 10.0 mi East 21.9 mph 29.9 mph N/A   Clear
4:53 PM 84.9 °F 52.0 °F 32% 29.72 in 10.0 mi ESE 21.9 mph 29.9 mph N/A   Clear
5:53 PM 86.0 °F 51.1 °F 30% 29.71 in 10.0 mi ESE 25.3 mph 32.2 mph N/A   Clear
6:53 PM 84.0 °F 48.0 °F 28% 29.74 in 10.0 mi SE 23.0 mph - N/A   Clear
7:53 PM 80.1 °F 46.0 °F 30% 29.77 in 10.0 mi East 18.4 mph - N/A   Clear
8:42 PM 73.9 °F 54.0 °F 50% 29.95 in 10.0 mi ENE 24.2 mph - N/A Thunderstorm Partly Cloudy
8:53 PM 73.0 °F 54.0 °F 51% 29.78 in 10.0 mi ENE 26.5 mph 34.5 mph N/A Thunderstorm Thunderstorm
9:20 PM 71.1 °F 55.9 °F 59% 29.97 in 10.0 mi East 21.9 mph 27.6 mph N/A Thunderstorm Mostly Cloudy
9:53 PM 68.0 °F 57.0 °F 68% 29.81 in 10.0 mi East 13.8 mph - 0.00 in   Clear
10:20 PM 70.0 °F 55.9 °F 61% 29.97 in 10.0 mi ESE 18.4 mph - N/A Thunderstorm Partly Cloudy
10:35 PM 70.0 °F 55.9 °F 61% 29.97 in 10.0 mi SE 13.8 mph - N/A   Scattered Clouds
10:53 PM 71.1 °F 55.0 °F 57% 29.83 in 10.0 mi East 5.8 mph - N/A   Mostly Cloudy
11:53 PM 64.9 °F 55.0 °F 70% 29.87 in 10.0 mi NNE 15.0 mph - N/A   Overcast